SCP
1 0 0 0 0 0 1 1 0 0 0 0 -0 -0 -0 0 -0 -0 0 0 0 0 -0 0 0 0 0 0 0 0 0 0
1 0 0 0 0 0 0 0 0 0 0 0 0 -0 -0 -0 0 0 0 0 0 -0 0 0 0 0 0 0 0 0 0 0
1 0 0 0 0 0 0 0 0 0 0 0 0 0 -0 0 0 0 0 0 0 0 0 0 0 0 0 0 0 0 0 0
0 0 0 0 0 0 0 1 1 0 0 0 0 0 0 0 0 0 0 -0 -0 -0 -0 0 0 0 0 0 0 0 0 0
0 0 1 0 0 1 1 1 1 1 0 0 0 0 0 0 0 0 1 0 0 0 0 0 0 0 0 0 0 0 0 0
0 0 1 1 1 1 1 2 2 2 1 0 1 1 0 0 0 0 0 0 0 0 0 0 0 0 0 0 0 0 0 0
0 0 0 1 1 1 1 2 2 1 1 0 0 0 0 0 0 0 0 0 0 0 0 0 0 0 0 0 0 0 0 0
1 0 0 1 1 1 1 2 1 1 1 1 0 0 0 0 0 0 0 0 0 0 0 0 0 0 0 0 0 0 0 0
1 0 0 1 1 1 1 1 1 1 1 0 0 0 0 0 0 0 0 0 0 0 0 0 0 0 0 0 0 0 0 0
1 0 0 1 1 1 1 1 1 1 1 0 0 0 0 0 0 0 0 0 0 0 0 0 0 0 0 0 0 0 0 0
0 0 0 0 1 1 1 1 1 0 0 0 0 0 0 0 0 0 0 0 0 0 0 0 0 0 0 0 0 0 0 0
0 0 0 0 1 1 1 1 0 0 0 0 0 0 0 0 0 0 0 0 0 0 0 0 0 0 0 0 0 0 0 0
0 0 0 0 1 1 1 1 0 0 0 0 0 0 0 0 0 0 0 0 0 0 0 0 0 0 0 0 0 0 0 0
0 0 1 0 1 1 1 0 0 0 0 0 0 0 0 0 0 0 0 0 0 0 0 0 0 0 0 0 0 0 0 0
0 0 1 0 1 0 1 0 0 0 0 0 0 0 0 0 0 0 0 0 0 0 0 0 0 0 0 0 0 0 0 0
0 0 0 0 1 0 0 0 0 0 0 0 0 0 0 0 0 0 0 0 0 0 0 0 0 0 0 0 0 0 0 0
0 0 0 1 1 0 0 0 0 0 0 0 0 0 0 0 0 0 0 0 0 0 0 0 0 0 0 0 0 0 0 0
0 0 0 0 0 0 0 0 0 0 0 0 0 0 0 0 0 0 0 0 0 0 0 0 0 0 0 0 0 0 0 0
0 0 0 0 0 0 0 0 0 0 0 0 0 0 0 0 0 0 0 0 0 0 0 0 0 0 0 0 0 0 0 0
0 0 0 0 0 0 0 0 0 0 0 0 0 0 0 0 0 0 0 0 0 0 0 0 0 0 0 0 0 0 0 0
Wind_Speed_500mb
34 30 25 21 22 25 32 34 38 40 45 46 50 47 37 31 51 43 38 29 31 33 33 38 41 36 32 34 35 35 30 31
39 34 30 25 26 26 31 36 40 43 48 49 49 43 42 50 52 48 43 27 29 31 35 37 42 37 36 35 30 30 26 27
45 39 35 29 29 27 28 34 42 48 51 52 49 48 56 48 54 47 25 24 36 34 42 43 45 39 39 34 27 25 25 21
49 45 41 33 34 33 32 36 42 48 53 54 51 52 54 51 57 40 34 31 32 39 40 44 44 44 40 31 28 23 18 14
52 49 45 39 40 39 38 43 43 46 50 55 54 54 53 58 44 38 44 40 46 42 41 49 47 40 38 33 21 20 19 18
51 52 50 45 43 42 45 48 50 54 57 58 65 61 54 50 45 44 62 48 51 48 54 52 42 36 35 30 25 22 20 21
49 55 57 53 50 50 49 48 50 54 57 62 66 67 58 52 44 47 55 54 54 52 58 50 45 36 34 31 28 24 23 24
48 58 63 62 59 54 50 49 48 54 56 58 66 68 71 58 54 52 56 60 57 61 54 54 52 36 35 32 27 22 26 26
51 57 66 70 65 56 53 50 50 51 55 53 59 67 74 75 64 55 56 66 60 58 55 55 40 38 38 34 28 25 26 28
51 55 67 74 69 62 57 51 50 51 52 49 54 60 69 72 67 61 70 68 59 61 61 53 45 44 38 36 31 26 26 30
52 59 66 72 72 66 55 53 49 49 52 49 52 58 66 65 76 65 74 65 64 72 67 54 51 50 41 38 33 27 26 29
48 54 60 68 73 66 58 54 51 48 53 54 56 59 67 70 79 73 76 73 68 71 75 59 51 53 43 39 34 28 27 31
43 50 57 71 79 74 63 60 54 48 48 54 57 56 65 65 75 70 82 82 77 82 72 60 56 54 49 42 33 27 29 31
39 47 56 70 76 72 64 57 49 47 50 51 55 58 61 67 68 79 86 87 81 84 80 67 63 63 59 49 35 27 28 33
38 47 56 65 65 68 54 39 45 47 48 52 53 56 63 64 76 79 91 97 98 91 82 74 75 70 60 55 43 37 40 36
38 45 54 56 58 58 56 46 38 42 46 49 52 50 56 63 62 75 98 104 100 102 93 85 74 73 60 49 39 36 50 32
37 45 52 59 56 49 46 37 32 30 34 41 48 54 57 64 62 76 82 107 105 103 99 91 84 76 69 57 45 36 35 27
36 45 56 65 63 49 44 41 39 40 38 43 51 54 61 63 59 64 83 92 99 100 103 102 94 81 74 60 53 48 39 32
36 49 61 64 65 56 46 40 41 42 40 40 50 54 63 60 65 66 85 101 83 110 105 107 92 87 87 69 50 44 33 34
37 52 56 63 62 53 44 39 33 33 32 36 39 41 52 56 62 72 81 87 95 109 98 105 100 90 90 73 55 44 37 31
Wind_Direction_500mb
219 217 214 218 221 216 218 206 201 201 204 204 211 204 243 200 192 190 193 185 196 187 183 186 187 185 181 179 176 164 153 156
221 220 218 219 221 217 221 213 210 207 208 207 211 228 209 180 193 188 178 189 194 188 194 190 193 188 184 181 179 170 157 151
222 220 221 221 220 222 224 218 213 213 211 215 220 210 192 195 194 191 205 224 200 200 200 191 193 186 182 180 175 169 164 158
222 221 220 221 219 218 222 220 215 216 216 217 216 198 191 186 191 217 239 204 197 206 195 192 185 181 182 178 177 173 161 176
225 224 223 221 219 215 217 217 219 217 218 212 201 192 190 195 208 214 196 198 192 188 191 188 183 174 178 178 176 175 190 185
230 227 227 225 222 220 225 224 221 220 222 219 209 207 209 206 210 200 196 202 208 195 188 186 177 168 172 177 177 171 179 172
233 228 228 228 225 223 228 228 224 224 227 226 222 221 213 205 205 201 207 206 202 195 187 185 182 172 176 177 173 174 176 170
233 233 228 230 226 225 230 232 229 225 230 230 231 227 220 212 208 210 211 205 204 205 202 189 186 177 176 176 173 176 170 170
234 232 227 230 226 225 228 233 235 233 233 231 230 230 226 224 215 211 207 208 208 208 204 196 180 177 180 176 175 174 172 165
231 221 225 229 226 224 226 233 237 234 234 235 229 232 226 225 223 214 209 212 219 207 199 187 184 180 178 177 175 175 172 170
228 219 223 226 223 224 226 233 239 237 232 229 233 227 227 224 228 218 216 218 205 202 196 186 185 181 178 175 175 175 174 178
219 214 215 220 220 220 221 230 238 235 232 228 224 227 226 226 222 218 223 215 200 201 198 184 188 182 176 172 173 177 178 181
218 209 206 217 215 214 217 226 236 232 234 225 223 224 223 224 229 222 223 212 204 204 197 185 187 183 171 165 168 175 179 187
215 205 199 214 213 212 217 226 234 238 231 228 226 224 223 228 228 216 218 213 203 206 198 188 185 184 176 172 164 177 190 190
215 199 195 208 205 208 209 214 225 223 225 230 226 226 224 227 230 217 223 221 209 209 205 190 182 183 186 182 172 189 187 200
215 197 193 192 195 204 206 211 217 222 223 227 227 227 227 226 229 222 214 216 216 212 212 192 186 184 187 188 189 189 179 184
216 203 195 192 192 198 204 206 210 220 219 225 228 231 231 233 234 237 226 217 213 215 212 191 191 187 188 185 186 178 193 189
207 194 197 197 197 199 206 212 218 216 221 226 229 232 239 240 241 245 227 223 218 215 210 199 198 191 191 191 192 191 193 199
196 186 199 199 201 209 213 217 225 224 232 233 238 237 242 242 243 240 220 217 217 207 207 200 201 198 199 197 196 197 200 199
195 188 204 198 200 208 213 219 219 224 226 230 232 245 246 250 253 236 220 217 214 207 205 202 206 201 204 200 200 196 198 196
Wind_Speed_850mb
34 30 25 21 22 25 32 34 38 40 45 46 50 47 37 31 51 43 38 29 31 33 33 38 41 36 32 34 35 35 30 31
39 34 30 25 26 26 31 36 40 43 48 49 49 43 42 50 52 48 43 27 29 31 35 37 42 37 36 35 30 30 26 27
45 39 35 29 29 27 28 34 42 48 51 52 49 48 56 48 54 47 25 24 36 34 42 43 45 39 39 34 27 25 25 21
49 45 41 33 34 33 32 36 42 48 53 54 51 52 54 51 57 40 34 31 32 39 40 44 44 44 40 31 28 23 18 14
52 49 45 39 40 39 38 43 43 46 50 55 54 54 53 58 44 38 44 40 46 42 41 49 47 40 38 33 21 20 19 18
51 52 50 45 43 42 45 48 50 54 57 58 65 61 54 50 45 44 62 48 51 48 54 52 42 36 35 30 25 22 20 21
49 55 57 53 50 50 49 48 50 54 57 62 66 67 58 52 44 47 55 54 54 52 58 50 45 36 34 31 28 24 23 24
48 58 63 62 59 54 50 49 48 54 56 58 66 68 71 58 54 52 56 60 57 61 54 54 52 36 35 32 27 22 26 26
51 57 66 70 65 56 53 50 50 51 55 53 59 67 74 75 64 55 56 66 60 58 55 55 40 38 38 34 28 25 26 28
51 55 67 74 69 62 57 51 50 51 52 49 54 60 69 72 67 61 70 68 59 61 61 53 45 44 38 36 31 26 26 30
52 59 66 72 72 66 55 53 49 49 52 49 52 58 66 65 76 65 74 65 64 72 67 54 51 50 41 38 33 27 26 29
48 54 60 68 73 66 58 54 51 48 53 54 56 59 67 70 79 73 76 73 68 71 75 59 51 53 43 39 34 28 27 31
43 50 57 71 79 74 63 60 54 48 48 54 57 56 65 65 75 70 82 82 77 82 72 60 56 54 49 42 33 27 29 31
39 47 56 70 76 72 64 57 49 47 50 51 55 58 61 67 68 79 86 87 81 84 80 67 63 63 59 49 35 27 28 33
38 47 56 65 65 68 54 39 45 47 48 52 53 56 63 64 76 79 91 97 98 91 82 74 75 70 60 55 43 37 40 36
38 45 54 56 58 58 56 46 38 42 46 49 52 50 56 63 62 75 98 104 100 102 93 85 74 73 60 49 39 36 50 32
37 45 52 59 56 49 46 37 32 30 34 41 48 54 57 64 62 76 82 107 105 103 99 91 84 76 69 57 45 36 35 27
36 45 56 65 63 49 44 41 39 40 38 43 51 54 61 63 59 64 83 92 99 100 103 102 94 81 74 60 53 48 39 32
36 49 61 64 65 56 46 40 41 42 40 40 50 54 63 60 65 66 85 101 83 110 105 107 92 87 87 69 50 44 33 34
37 52 56 63 62 53 44 39 33 33 32 36 39 41 52 56 62 72 81 87 95 109 98 105 100 90 90 73 55 44 37 31
Wind_Direction_850mb
219 217 214 218 221 216 218 206 201 201 204 204 211 204 243 200 192 190 193 185 196 187 183 186 187 185 181 179 176 164 153 156
221 220 218 219 221 217 221 213 210 207 208 207 211 228 209 180 193 188 178 189 194 188 194 190 193 188 184 181 179 170 157 151
222 220 221 221 220 222 224 218 213 213 211 215 220 210 192 195 194 191 205 224 200 200 200 191 193 186 182 180 175 169 164 158
222 221 220 221 219 218 222 220 215 216 216 217 216 198 191 186 191 217 239 204 197 206 195 192 185 181 182 178 177 173 161 176
225 224 223 221 219 215 217 217 219 217 218 212 201 192 190 195 208 214 196 198 192 188 191 188 183 174 178 178 176 175 190 185
230 227 227 225 222 220 225 224 221 220 222 219 209 207 209 206 210 200 196 202 208 195 188 186 177 168 172 177 177 171 179 172
233 228 228 228 225 223 228 228 224 224 227 226 222 221 213 205 205 201 207 206 202 195 187 185 182 172 176 177 173 174 176 170
233 233 228 230 226 225 230 232 229 225 230 230 231 227 220 212 208 210 211 205 204 205 202 189 186 177 176 176 173 176 170 170
234 232 227 230 226 225 228 233 235 233 233 231 230 230 226 224 215 211 207 208 208 208 204 196 180 177 180 176 175 174 172 165
231 221 225 229 226 224 226 233 237 234 234 235 229 232 226 225 223 214 209 212 219 207 199 187 184 180 178 177 175 175 172 170
228 219 223 226 223 224 226 233 239 237 232 229 233 227 227 224 228 218 216 218 205 202 196 186 185 181 178 175 175 175 174 178
219 214 215 220 220 220 221 230 238 235 232 228 224 227 226 226 222 218 223 215 200 201 198 184 188 182 176 172 173 177 178 181
218 209 206 217 215 214 217 226 236 232 234 225 223 224 223 224 229 222 223 212 204 204 197 185 187 183 171 165 168 175 179 187
215 205 199 214 213 212 217 226 234 238 231 228 226 224 223 228 228 216 218 213 203 206 198 188 185 184 176 172 164 177 190 190
215 199 195 208 205 208 209 214 225 223 225 230 226 226 224 227 230 217 223 221 209 209 205 190 182 183 186 182 172 189 187 200
215 197 193 192 195 204 206 211 217 222 223 227 227 227 227 226 229 222 214 216 216 212 212 192 186 184 187 188 189 189 179 184
216 203 195 192 192 198 204 206 210 220 219 225 228 231 231 233 234 237 226 217 213 215 212 191 191 187 188 185 186 178 193 189
207 194 197 197 197 199 206 212 218 216 221 226 229 232 239 240 241 245 227 223 218 215 210 199 198 191 191 191 192 191 193 199
196 186 199 199 201 209 213 217 225 224 232 233 238 237 242 242 243 240 220 217 217 207 207 200 201 198 199 197 196 197 200 199
195 188 204 198 200 208 213 219 219 224 226 230 232 245 246 250 253 236 220 217 214 207 205 202 206 201 204 200 200 196 198 196